Weather History for Buffalo, WY

Change the Weather History Date:

Tuesday, October 15, 2013

  Actual Average Record
Temperature  
Mean Temperature 35 °F 46 °F  
Max Temperature 43 °F 58 °F 82 °F (2014)
Min Temperature 26 °F 35 °F 23 °F (2001)
Degree Days  
Heating Degree Days 30 19  
Month to date heating degree days 320 250  
Since 1 July heating degree days 472 564  
Cooling Degree Days 0 0  
Month to date cooling degree days 0 0  
Year to date cooling degree days 709 491  
Moisture  
Dew Point 23 °F    
Average Humidity 59    
Maximum Humidity 72    
Minimum Humidity 45    
Precipitation  
Precipitation 0.00 in 0.03 in 0.38 in (2004)
Month to date precipitation 1.88 0.60  
Year to date precipitation 9.64 12.18  
Sea Level Pressure  
Sea Level Pressure 30.30 in    
Wind  
Wind Speed 7 mph (NW)    
Max Wind Speed 20 mph    
Max Gust Speed 28 mph    
Visibility 10 miles    
Events      
T = Trace of Precipitation, MM = Missing Value Source: NWS Daily Summary

Daily Weather History Graph

Daily Weather History Graph

Search for Another Location

Airport:

Trip Planner

Search our weather history database for the weather conditions in past years. The results will help you decide how hot, cold, wet, or windy it might be!

Date:

Astronomy

Oct. 15, 2013 Rise Set
Actual Time 7:22 AM MDT 6:22 PM MDT
Civil Twilight 6:52 AM MDT 6:51 PM MDT
Nautical Twilight 6:19 AM MDT 7:25 PM MDT
Astronomical Twilight 5:45 AM MDT 7:58 PM MDT
Moon 4:34 PM MDT (10/15) 3:40 AM MDT (10/15)
Length of Visible Light 11h 58m
Length of Day
10h 59m
Waxing Gibbous, 88% of the Moon is Illuminated
Oct 15
Waxing Gibbous
Oct 18
Full
Oct 26
Last Quarter
Nov 3
New
Nov 9
First Quarter

Hourly Weather History & Observations

Time (MDT) Temp. Windchill Dew Point Humidity Pressure Visibility Wind Dir Wind Speed Gust Speed Precip Events Conditions
12:53 AM 34.0 °F 23.8 °F 23.0 °F 64% 30.39 in 10.0 mi NW 16.1 mph 27.6 mph N/A   Mostly Cloudy
1:53 AM 34.0 °F 24.6 °F 23.0 °F 64% 30.39 in 10.0 mi NNW 13.8 mph 24.2 mph N/A   Overcast
2:53 AM 33.1 °F 23.4 °F 24.1 °F 70% 30.39 in 10.0 mi NNW 13.8 mph 27.6 mph N/A   Overcast
5:53 AM 34.0 °F 23.8 °F 21.0 °F 59% 30.37 in 10.0 mi NW 16.1 mph 25.3 mph N/A   Partly Cloudy
6:53 AM 34.0 °F 24.2 °F 21.0 °F 59% 30.38 in 10.0 mi NNW 15.0 mph 25.3 mph N/A   Overcast
7:53 AM 35.1 °F 25.5 °F 21.0 °F 57% 30.38 in 10.0 mi NNW 15.0 mph - N/A   Overcast
8:53 AM 35.1 °F 27.4 °F 21.0 °F 57% 30.39 in 10.0 mi WNW 10.4 mph - N/A   Overcast
9:53 AM 37.0 °F 29.8 °F 21.0 °F 52% 30.40 in 10.0 mi NNW 10.4 mph - N/A   Partly Cloudy
10:53 AM 36.0 °F 29.0 °F 26.1 °F 67% 30.38 in 10.0 mi North 9.2 mph - N/A   Scattered Clouds
11:53 AM 39.0 °F 31.4 °F 21.9 °F 50% 30.35 in 10.0 mi North 12.7 mph 24.2 mph N/A   Mostly Cloudy
12:53 PM 41.0 °F 35.8 °F 23.0 °F 49% 30.33 in 10.0 mi North 8.1 mph 19.6 mph N/A   Clear
1:53 PM 42.1 °F - 23.0 °F 47% 30.29 in 10.0 mi Calm Calm - N/A   Clear
2:53 PM 41.0 °F 38.0 °F 21.9 °F 47% 30.27 in 10.0 mi North 4.6 mph - N/A   Clear
3:53 PM 43.0 °F 39.5 °F 23.0 °F 45% 30.25 in 10.0 mi North 5.8 mph - N/A   Clear
4:53 PM 42.1 °F - 23.0 °F 47% 30.24 in 10.0 mi Calm Calm - N/A   Clear
5:53 PM 41.0 °F - 23.0 °F 49% 30.23 in 10.0 mi Calm Calm - N/A   Clear
6:53 PM 37.0 °F 34.5 °F 24.1 °F 59% 30.25 in 10.0 mi ESE 3.5 mph - N/A   Clear
7:53 PM 35.1 °F - 24.1 °F 64% 30.24 in 10.0 mi Calm Calm - N/A   Clear
8:53 PM 33.1 °F 27.7 °F 24.1 °F 70% 30.22 in 10.0 mi SSW 5.8 mph - N/A   Clear
9:53 PM 32.0 °F 24.2 °F 24.1 °F 73% 30.20 in 10.0 mi South 9.2 mph - N/A   Clear
10:53 PM 30.0 °F 24.1 °F 19.9 °F 66% 30.19 in 10.0 mi SSW 5.8 mph - N/A   Clear
11:53 PM 30.9 °F 25.2 °F 19.0 °F 61% 30.17 in 10.0 mi West 5.8 mph - N/A   Clear